Perry, IA

6:22 AM CST on February 23, 2017 (GMT -0600)
Perry Municipal

Weather History for KPRO - February, 2012

Change the Weather History Date:

Tuesday, February 28, 2012

  Actual Average Record
Temperature  
Mean Temperature 37 °F -  
Max Temperature 44 °F 40 °F 64 °F (1981)
Min Temperature 30 °F 22 °F -18 °F (1962)
Degree Days  
Heating Degree Days 28    
Moisture  
Dew Point 34 °F    
Average Humidity 93    
Maximum Humidity 100    
Minimum Humidity 86    
Precipitation  
Precipitation 0.04 in - - ()
Sea Level Pressure  
Sea Level Pressure 29.99 in    
Wind  
Wind Speed 13 mph (SE)    
Max Wind Speed 21 mph    
Max Gust Speed 28 mph    
Visibility 9 miles    
Events Rain    
Averages and records for this station are not official NWS values.
T = Trace of Precipitation, MM = Missing Value Source: NWS Daily Summary

Daily Weather History Graph

Daily Weather History Graph

Search for Another Location

Airport or City:

Trip Planner

Search our weather history database for the weather conditions in past years. The results will help you decide how hot, cold, wet, or windy it might be!

Date:

Astronomy

Feb. 28, 2012 Rise Set
Actual Time 6:53 AM CST 6:05 PM CST
Civil Twilight 6:25 AM CST 6:33 PM CST
Nautical Twilight 5:53 AM CST 7:05 PM CST
Astronomical Twilight 5:21 AM CST 7:37 PM CST
Moon 9:55 AM CST (2/28) 12:04 AM CST (2/28)
Length of Visible Light 12h 07m
Length of Day
11h 11m
Waxing Crescent, 38% of the Moon is Illuminated
Feb 28
Waxing Crescent
Feb 29
First Quarter
Mar 8
Full
Mar 14
Last Quarter
Mar 22
New

Hourly Weather History & Observations

Time (CST) Temp. Windchill Dew Point Humidity Pressure Visibility Wind Dir Wind Speed Gust Speed Precip Events Conditions
12:15 AM 30.7 °F 21.4 °F 28.9 °F 93% 30.32 in 10.0 mi ESE 11.5 mph - N/A   Overcast
12:35 AM 31.1 °F 22.4 °F 28.4 °F 90% 30.32 in 10.0 mi ESE 10.4 mph - N/A   Overcast
12:55 AM 31.1 °F 21.4 °F 28.4 °F 90% 30.32 in 10.0 mi SE 12.7 mph - N/A   Overcast
1:15 AM 31.5 °F 22.3 °F 28.0 °F 87% 30.32 in 10.0 mi SE 11.5 mph - N/A   Overcast
1:35 AM 31.3 °F 21.1 °F 28.2 °F 88% 30.31 in 10.0 mi SE 13.8 mph - N/A   Mostly Cloudy
1:55 AM 31.6 °F 23.1 °F 28.0 °F 87% 30.31 in 10.0 mi SE 10.4 mph - N/A   Overcast
2:15 AM 31.5 °F 22.9 °F 28.2 °F 88% 30.31 in 10.0 mi ESE 10.4 mph - N/A   Overcast
2:35 AM 31.6 °F 23.1 °F 28.0 °F 87% 30.29 in 10.0 mi ESE 10.4 mph - N/A   Overcast
2:55 AM 31.5 °F 20.9 °F 28.0 °F 87% 30.28 in 10.0 mi SE 15.0 mph - N/A   Overcast
3:15 AM 31.5 °F 20.9 °F 28.2 °F 88% 30.25 in 10.0 mi SE 15.0 mph - N/A   Overcast
3:35 AM 31.6 °F 22.1 °F 28.4 °F 88% 30.24 in 10.0 mi ESE 12.7 mph - N/A   Overcast
3:55 AM 31.8 °F 21.4 °F 28.2 °F 87% 30.23 in 10.0 mi SE 15.0 mph - N/A   Overcast
4:15 AM 32.0 °F 21.6 °F 28.2 °F 86% 30.24 in 10.0 mi SE 15.0 mph 19.6 mph N/A   Overcast
4:35 AM 32.0 °F 22.5 °F 28.2 °F 86% 30.23 in 10.0 mi SE 12.7 mph 17.3 mph N/A   Overcast
4:55 AM 32.0 °F 21.6 °F 28.4 °F 87% 30.21 in 10.0 mi SE 15.0 mph - N/A   Overcast
5:15 AM 32.0 °F 22.1 °F 28.2 °F 86% 30.20 in 10.0 mi SE 13.8 mph 20.7 mph N/A   Overcast
6:15 AM 32.0 °F 21.2 °F 28.4 °F 87% 30.15 in 10.0 mi SE 16.1 mph - N/A   Mostly Cloudy
6:35 AM 32.0 °F 22.1 °F 29.1 °F 89% 30.16 in 10.0 mi SE 13.8 mph - N/A   Light Drizzle
6:55 AM 32.0 °F 22.1 °F 29.3 °F 90% 30.15 in 10.0 mi SE 13.8 mph - N/A   Overcast
7:15 AM 32.0 °F 22.5 °F 29.3 °F 90% 30.15 in 10.0 mi SE 12.7 mph - N/A   Overcast
7:35 AM 32.0 °F 23.0 °F 29.3 °F 90% 30.14 in 10.0 mi SE 11.5 mph - N/A   Overcast
7:55 AM 32.5 °F 22.7 °F 29.7 °F 89% 30.14 in 10.0 mi SE 13.8 mph - N/A   Overcast
8:15 AM 32.9 °F 24.1 °F 29.7 °F 88% 30.14 in 10.0 mi SE 11.5 mph - N/A   Overcast
8:35 AM 32.9 °F 24.1 °F 29.8 °F 88% 30.14 in 10.0 mi SE 11.5 mph - N/A   Overcast
8:55 AM 33.3 °F 25.7 °F 30.0 °F 88% 30.13 in 10.0 mi SE 9.2 mph - N/A   Overcast
9:15 AM 33.1 °F 26.1 °F 31.3 °F 93% 30.13 in 7.0 mi SE 8.1 mph - N/A Rain Rain
9:35 AM 33.1 °F 24.9 °F 32.0 °F 96% 30.11 in 10.0 mi SE 10.4 mph - N/A Rain Light Rain
9:55 AM 33.3 °F 24.6 °F 32.0 °F 95% 30.09 in 10.0 mi SE 11.5 mph - N/A Rain Light Rain
10:15 AM 33.3 °F 25.1 °F 32.5 °F 97% 30.08 in 10.0 mi SE 10.4 mph - N/A Rain Light Rain
10:35 AM 33.3 °F 24.1 °F 32.9 °F 99% 30.06 in 7.0 mi ESE 12.7 mph - N/A Rain Light Rain
10:55 AM 34.2 °F 24.4 °F 33.6 °F 98% 30.05 in 10.0 mi ESE 15.0 mph - 0.01 in Rain Light Rain
11:15 AM 34.7 °F 25.9 °F 34.0 °F 97% 30.04 in 10.0 mi ESE 12.7 mph - N/A   Overcast
11:35 AM 34.7 °F 26.4 °F 34.2 °F 98% 30.03 in 10.0 mi ESE 11.5 mph - N/A Rain Light Rain
11:55 AM 35.8 °F 27.3 °F 35.2 °F 98% 30.00 in 10.0 mi ESE 12.7 mph - N/A   Overcast
12:15 PM 36.5 °F 27.8 °F 35.6 °F 97% 29.99 in 10.0 mi ESE 13.8 mph - N/A   Overcast
12:35 PM 36.5 °F 27.8 °F 35.8 °F 97% 29.96 in 7.0 mi SE 13.8 mph - N/A Rain Light Rain
12:55 PM 36.9 °F 27.5 °F 36.3 °F 98% 29.92 in 5.0 mi ESE 16.1 mph - N/A Rain Light Rain
1:15 PM 37.6 °F 28.1 °F 36.7 °F 97% 29.89 in 10.0 mi ESE 17.3 mph - N/A   Overcast
1:35 PM 39.9 °F 30.2 °F 38.5 °F 95% 29.85 in 10.0 mi ESE 20.7 mph - N/A   Mostly Cloudy
1:55 PM 41.0 °F 31.9 °F 38.3 °F 90% 29.82 in 10.0 mi ESE 19.6 mph 27.6 mph N/A   Scattered Clouds
2:15 PM 42.6 °F 34.3 °F 39.9 °F 90% 29.83 in 10.0 mi SE 18.4 mph - N/A   Clear
2:35 PM 43.7 °F 36.9 °F 39.9 °F 87% 29.82 in 10.0 mi SE 13.8 mph - N/A   Mostly Cloudy
2:55 PM 43.7 °F 37.7 °F 39.7 °F 86% 29.80 in 10.0 mi ESE 11.5 mph - N/A   Overcast
3:15 PM 43.9 °F 37.2 °F 40.1 °F 87% 29.79 in 10.0 mi ESE 13.8 mph - N/A   Overcast
3:35 PM 43.7 °F 36.6 °F 40.3 °F 88% 29.76 in 10.0 mi ESE 15.0 mph - N/A   Overcast
3:55 PM 43.0 °F 36.4 °F 39.6 °F 88% 29.77 in 10.0 mi ESE 12.7 mph - N/A Rain Light Rain
4:15 PM 42.8 °F 35.4 °F 39.4 °F 88% 29.74 in 10.0 mi ESE 15.0 mph - N/A Rain Light Rain
4:55 PM 41.0 °F 32.5 °F 40.1 °F 97% 29.72 in 5.0 mi ESE 17.3 mph - 0.02 in Rain Light Rain
5:15 PM 41.0 °F 32.8 °F 40.5 °F 98% 29.71 in 5.0 mi ESE 16.1 mph - N/A Rain Light Rain
5:55 PM 40.6 °F 32.0 °F 40.6 °F 100% 29.70 in 10.0 mi ESE 17.3 mph - 0.01 in   Overcast
6:15 PM 40.5 °F 31.8 °F 40.5 °F 100% 29.69 in 10.0 mi ESE 17.3 mph - N/A   Overcast
6:35 PM 40.6 °F 31.7 °F 40.6 °F 100% 29.67 in 5.0 mi ESE 18.4 mph - N/A   Overcast
6:55 PM 40.3 °F 32.2 °F 40.3 °F 100% 29.65 in 3.0 mi ESE 15.0 mph - N/A Rain Light Rain
7:15 PM 40.5 °F 33.2 °F 40.5 °F 100% 29.63 in 5.0 mi ESE 12.7 mph - N/A   Overcast
7:35 PM 41.2 °F 34.1 °F 41.2 °F 100% 29.62 in 4.0 mi ESE 12.7 mph - N/A Rain Light Rain
7:55 PM 41.4 °F 34.7 °F 41.4 °F 100% 29.60 in 3.0 mi ESE 11.5 mph - N/A Rain Light Rain
8:15 PM 42.8 °F 34.8 °F 42.8 °F 100% 29.57 in 4.0 mi ESE 17.3 mph - N/A Rain Light Rain
8:35 PM 43.7 °F 36.3 °F 43.7 °F 100% 29.55 in 5.0 mi ESE 16.1 mph - N/A   Overcast
8:55 PM 44.2 °F 37.0 °F 44.2 °F 100% 29.53 in 5.0 mi ESE 16.1 mph - N/A   Overcast
9:15 PM 44.6 °F 37.4 °F 44.6 °F 100% 29.52 in 5.0 mi ESE 16.1 mph - N/A   Overcast
9:35 PM 44.6 °F 37.8 °F 44.6 °F 100% 29.48 in 5.0 mi ESE 15.0 mph 20.7 mph N/A   Overcast
9:55 PM 44.8 °F 38.0 °F 44.8 °F 100% 29.47 in 5.0 mi ESE 15.0 mph - N/A   Overcast
10:15 PM 45.0 °F 38.5 °F 45.0 °F 100% 29.47 in 2.5 mi ESE 13.8 mph 18.4 mph 0.10 in Rain Light Rain
10:35 PM 45.5 °F 44.2 °F 45.5 °F 100% 29.45 in 5.0 mi ESE 3.5 mph - 0.13 in Rain Rain
10:55 PM 47.1 °F - 47.1 °F 100% 29.41 in 4.0 mi SSE 15.0 mph 18.4 mph 0.17 in Rain Rain
11:15 PM 47.7 °F - 47.7 °F 100% 29.41 in 2.5 mi SE 15.0 mph - 0.21 in Rain Heavy Rain
11:35 PM 47.7 °F - 47.7 °F 100% 29.39 in 5.0 mi ESE 11.5 mph - 0.36 in Rain Rain
11:55 PM 47.5 °F - 47.5 °F 100% 29.35 in 7.0 mi East 13.8 mph - 0.41 in Rain Light Rain